| time (UTC) | temp F | wind direction | speed MPH | gust MPH | rain 1hr in | rain 24hr in | rain mn in | humidity % | barometer mb |
| 20260905195721 | 86 | 219 | 17.0 | 25.0 | 0.00 | 0.00 | 0.00 | 15 | 1013.1 |
| 20260905195020 | 85 | 221 | 14.0 | 26.0 | 0.00 | 0.00 | 0.00 | 14 | 1013.8 |
| 20260905194320 | 85 | 228 | 19.0 | 26.0 | 0.00 | 0.00 | 0.00 | 15 | 1013.6 |
| 20260905193620 | 84 | 242 | 13.0 | 25.0 | 0.00 | 0.00 | 0.00 | 14 | 1013.7 |
| 20260905192216 | 85 | 213 | 13.0 | 19.0 | 0.00 | 0.00 | 0.00 | 17 | 1013.9 |
| 20260905191515 | 84 | 225 | 7.0 | 29.0 | 0.00 | 0.00 | 0.00 | 16 | 1014.2 |
| 20260905190814 | 84 | 218 | 11.0 | 27.0 | 0.00 | 0.00 | 0.00 | 15 | 1014.3 |
| 20260905190115 | 84 | 226 | 10.0 | 28.0 | 0.00 | 0.00 | 0.00 | 17 | 1014.2 |
| 20260905185413 | 84 | 230 | 14.0 | 21.0 | 0.00 | 0.00 | 0.00 | 17 | 1014.2 |
| 20260905184712 | 84 | 216 | 14.0 | 30.0 | 0.00 | 0.00 | 0.00 | 16 | 1014.5 |
| 20260905184010 | 84 | 213 | 16.0 | 30.0 | 0.00 | 0.00 | 0.00 | 17 | 1014.4 |
| 20260905183309 | 84 | 212 | 10.0 | 16.0 | 0.00 | 0.00 | 0.00 | 16 | 1014.4 |
| 20260905182610 | 83 | 106 | 2.0 | 19.0 | 0.00 | 0.00 | 0.00 | 16 | 1014.7 |
| 20260905181908 | 83 | 240 | 13.0 | 19.0 | 0.00 | 0.00 | 0.00 | 16 | 1014.8 |
| 20260905181206 | 82 | 232 | 9.0 | 18.0 | 0.00 | 0.00 | 0.00 | 17 | 1015.1 |
| 20260905180505 | 82 | 215 | 11.0 | 18.0 | 0.00 | 0.00 | 0.00 | 16 | 1015.2 |
| 20260905175804 | 83 | 290 | 5.0 | 13.0 | 0.00 | 0.00 | 0.00 | 15 | 1015.1 |
| 20260905175103 | 83 | 67 | 6.0 | 11.0 | 0.00 | 0.00 | 0.00 | 16 | 1015.0 |
| 20260905174402 | 82 | 149 | 2.0 | 16.0 | 0.00 | 0.00 | 0.00 | 16 | 1015.3 |
| 20260905173701 | 82 | 3 | 2.0 | 16.0 | 0.00 | 0.00 | 0.00 | 16 | 1015.3 |
| 20260905172259 | 82 | 37 | 6.0 | 16.0 | 0.00 | 0.00 | 0.00 | 16 | 1015.3 |
| 20260905171558 | 83 | 103 | 9.0 | 16.0 | 0.00 | 0.00 | 0.00 | 16 | 1015.3 |
| 20260905170857 | 83 | 110 | 2.0 | 14.0 | 0.00 | 0.00 | 0.00 | 16 | 1015.3 |
| 20260905170156 | 82 | 45 | 6.0 | 11.0 | 0.00 | 0.00 | 0.00 | 17 | 1015.3 |
| 20260905165456 | 81 | 270 | 7.0 | 11.0 | 0.00 | 0.00 | 0.00 | 18 | 1015.4 |
| 20260905164754 | 81 | 300 | 3.0 | 15.0 | 0.00 | 0.00 | 0.00 | 16 | 1015.6 |
| 20260905164054 | 80 | 222 | 3.0 | 15.0 | 0.00 | 0.00 | 0.00 | 16 | 1015.7 |
| 20260905163354 | 80 | 230 | 2.0 | 14.0 | 0.00 | 0.00 | 0.00 | 17 | 1015.6 |
| 20260905162652 | 80 | 271 | 8.0 | 19.0 | 0.00 | 0.00 | 0.00 | 17 | 1015.4 |
| 20260905161950 | 80 | 245 | 6.0 | 11.0 | 0.00 | 0.00 | 0.00 | 17 | 1015.4 |
| 20260905161249 | 80 | 280 | 4.0 | 11.0 | 0.00 | 0.00 | 0.00 | 16 | 1015.3 |
| 20260905160548 | 80 | 267 | 4.0 | 21.0 | 0.00 | 0.00 | 0.00 | 16 | 1015.5 |
| 20260905155847 | 80 | 242 | 9.0 | 14.0 | 0.00 | 0.00 | 0.00 | 17 | 1015.5 |
| 20260905155146 | 80 | 68 | 3.0 | 14.0 | 0.00 | 0.00 | 0.00 | 16 | 1015.5 |
| 20260905154446 | 80 | 190 | 3.0 | 20.0 | 0.00 | 0.00 | 0.00 | 16 | 1015.5 |
| 20260905153744 | 80 | 216 | 14.0 | 21.0 | 0.00 | 0.00 | 0.00 | 17 | 1015.3 |
| 20260905153044 | 80 | 294 | 15.0 | 21.0 | 0.00 | 0.00 | 0.00 | 16 | 1015.3 |
| 20260905152342 | 81 | 251 | 4.0 | 9.0 | 0.00 | 0.00 | 0.00 | 16 | 1015.2 |
| 20260905151641 | 81 | 187 | 2.0 | 11.0 | 0.00 | 0.00 | 0.00 | 16 | 1015.2 |
| 20260905150940 | 80 | 89 | 4.0 | 24.0 | 0.00 | 0.00 | 0.00 | 16 | 1015.4 |
| 20260905150239 | 78 | 218 | 9.0 | 29.0 | 0.00 | 0.00 | 0.00 | 16 | 1015.0 |
| 20260905145538 | 79 | 298 | 5.0 | 14.0 | 0.00 | 0.00 | 0.00 | 18 | 1015.4 |
| 20260905144837 | 79 | 339 | 8.0 | 14.0 | 0.00 | 0.00 | 0.00 | 15 | 1015.2 |
| 20260905144136 | 79 | 331 | 2.0 | 10.0 | 0.00 | 0.00 | 0.00 | 16 | 1015.2 |
| 20260905143435 | 78 | 55 | 3.0 | 11.0 | 0.00 | 0.00 | 0.00 | 17 | 1014.6 |
| 20260905142734 | 78 | 270 | 5.0 | 20.0 | 0.00 | 0.00 | 0.00 | 19 | 1014.9 |
| 20260905142033 | 79 | 257 | 8.0 | 20.0 | 0.00 | 0.00 | 0.00 | 17 | 1014.8 |
| 20260905141332 | 79 | 36 | 6.0 | 12.0 | 0.00 | 0.00 | 0.00 | 17 | 1014.8 |
| 20260905140631 | 79 | 65 | 2.0 | 22.0 | 0.00 | 0.00 | 0.00 | 17 | 1014.8 |
| 20260905135930 | 79 | 222 | 4.0 | 19.0 | 0.00 | 0.00 | 0.00 | 17 | 1014.6 |
| 20260905135229 | 79 | 193 | 2.0 | 19.0 | 0.00 | 0.00 | 0.00 | 17 | 1014.7 |
| 20260905134528 | 79 | 242 | 9.0 | 18.0 | 0.00 | 0.00 | 0.00 | 17 | 1014.4 |
| 20260905133827 | 79 | 257 | 2.0 | 14.0 | 0.00 | 0.00 | 0.00 | 17 | 1014.4 |
| 20260905133125 | 79 | 230 | 5.0 | 14.0 | 0.00 | 0.00 | 0.00 | 17 | 1014.3 |
| 20260905132425 | 79 | 332 | 1.0 | 25.0 | 0.00 | 0.00 | 0.00 | 17 | 1014.2 |
| 20260905131724 | 79 | 247 | 9.0 | 18.0 | 0.00 | 0.00 | 0.00 | 18 | 1014.0 |
| 20260905131022 | 79 | 70 | 4.0 | 22.0 | 0.00 | 0.00 | 0.00 | 17 | 1013.9 |
| 20260905130321 | 79 | 208 | 11.0 | 24.0 | 0.00 | 0.00 | 0.00 | 17 | 1014.0 |
| 20260905125620 | 79 | 279 | 8.0 | 23.0 | 0.00 | 0.00 | 0.00 | 17 | 1013.7 |
| 20260905124919 | 79 | 220 | 5.0 | 16.0 | 0.00 | 0.00 | 0.00 | 18 | 1013.3 |
| 20260905124218 | 79 | 280 | 7.0 | 13.0 | 0.00 | 0.00 | 0.00 | 17 | 1013.1 |
| 20260905123518 | 79 | 134 | 3.0 | 15.0 | 0.00 | 0.00 | 0.00 | 17 | 1013.1 |
| 20260905122816 | 79 | 133 | 4.0 | 21.0 | 0.00 | 0.00 | 0.00 | 17 | 1013.4 |
| 20260905122115 | 79 | 247 | 4.0 | 18.0 | 0.00 | 0.00 | 0.00 | 17 | 1013.1 |
| 20260905121414 | 80 | 267 | 6.0 | 33.0 | 0.00 | 0.00 | 0.00 | 17 | 1012.9 |
| 20260905120714 | 80 | 238 | 12.0 | 32.0 | 0.00 | 0.00 | 0.00 | 17 | 1012.9 |
| 20260905120012 | 80 | 266 | 6.0 | 31.0 | 0.00 | 0.00 | 0.00 | 17 | 1012.9 |
| 20260905115311 | 80 | 228 | 18.0 | 36.0 | 0.00 | 0.00 | 0.00 | 17 | 1012.7 |
| 20260905114610 | 80 | 175 | 14.0 | 36.0 | 0.00 | 0.00 | 0.00 | 17 | 1013.0 |
| 20260905113909 | 79 | 194 | 21.0 | 36.0 | 0.00 | 0.00 | 0.00 | 17 | 1013.1 |
| 20260905113209 | 80 | 190 | 18.0 | 36.0 | 0.00 | 0.00 | 0.00 | 17 | 1013.0 |
| 20260905112509 | 80 | 189 | 18.0 | 33.0 | 0.00 | 0.00 | 0.00 | 17 | 1013.0 |
| 20260905111806 | 80 | 198 | 18.0 | 33.0 | 0.00 | 0.00 | 0.00 | 17 | 1012.9 |
| 20260905111105 | 80 | 195 | 21.0 | 48.0 | 0.00 | 0.00 | 0.00 | 17 | 1013.0 |
| 20260905105703 | 80 | 195 | 17.0 | 40.0 | 0.00 | 0.00 | 0.00 | 17 | 1013.0 |
| 20260905105002 | 80 | 201 | 19.0 | 31.0 | 0.00 | 0.00 | 0.00 | 17 | 1013.5 |
| 20260905104302 | 80 | 191 | 19.0 | 31.0 | 0.00 | 0.00 | 0.00 | 17 | 1012.4 |
| 20260905103600 | 80 | 201 | 17.0 | 33.0 | 0.00 | 0.00 | 0.00 | 17 | 1012.6 |
| 20260905102901 | 80 | 188 | 18.0 | 33.0 | 0.00 | 0.00 | 0.00 | 17 | 1012.7 |
| 20260905102158 | 81 | 203 | 20.0 | 36.0 | 0.00 | 0.00 | 0.00 | 17 | 1012.4 |
| 20260905101457 | 80 | 187 | 13.0 | 32.0 | 0.00 | 0.00 | 0.00 | 17 | 1012.5 |
| 20260905100756 | 81 | 205 | 19.0 | 30.0 | 0.00 | 0.00 | 0.00 | 17 | 1012.5 |
| 20260905100055 | 81 | 203 | 16.0 | 35.0 | 0.00 | 0.00 | 0.00 | 17 | 1012.4 |
| 20260905095354 | 81 | 211 | 18.0 | 41.0 | 0.00 | 0.00 | 0.00 | 17 | 1012.3 |
| 20260905094653 | 81 | 211 | 24.0 | 36.0 | 0.00 | 0.00 | 0.00 | 16 | 1012.0 |
| 20260905093952 | 82 | 192 | 14.0 | 37.0 | 0.00 | 0.00 | 0.00 | 15 | 1012.0 |
| 20260905093251 | 81 | 189 | 17.0 | 32.0 | 0.00 | 0.00 | 0.00 | 16 | 1012.0 |
| 20260905092550 | 82 | 205 | 14.0 | 40.0 | 0.00 | 0.00 | 0.00 | 16 | 1012.2 |
| 20260905091849 | 82 | 209 | 20.0 | 40.0 | 0.00 | 0.00 | 0.00 | 16 | 1011.2 |
| 20260905091148 | 82 | 185 | 7.0 | 33.0 | 0.00 | 0.00 | 0.00 | 16 | 1011.7 |
| 20260905090448 | 82 | 225 | 9.0 | 33.0 | 0.00 | 0.00 | 0.00 | 17 | 1012.5 |
| 20260905085748 | 82 | 301 | 9.0 | 35.0 | 0.00 | 0.00 | 0.00 | 17 | 1011.5 |
| 20260905085045 | 81 | 232 | 14.0 | 32.0 | 0.00 | 0.00 | 0.00 | 19 | 1012.2 |
| 20260905084344 | 82 | 195 | 8.0 | 32.0 | 0.00 | 0.00 | 0.00 | 19 | 1012.1 |
| 20260905083643 | 82 | 249 | 8.0 | 32.0 | 0.00 | 0.00 | 0.00 | 19 | 1011.7 |
| 20260905082942 | 82 | 190 | 5.0 | 38.0 | 0.00 | 0.00 | 0.00 | 19 | 1011.6 |
| 20260905082241 | 82 | 211 | 21.0 | 46.0 | 0.00 | 0.00 | 0.00 | 19 | 1011.9 |
| 20260905081540 | 82 | 239 | 5.0 | 39.0 | 0.00 | 0.00 | 0.00 | 19 | 1011.4 |
| 20260905080839 | 82 | 227 | 12.0 | 39.0 | 0.00 | 0.00 | 0.00 | 20 | 1011.4 |
| 20260905080138 | 82 | 238 | 22.0 | 49.0 | 0.00 | 0.00 | 0.00 | 20 | 1011.2 |
| 20260905075437 | 82 | 233 | 16.0 | 35.0 | 0.00 | 0.00 | 0.00 | 20 | 1011.7 |
| 20260905074736 | 82 | 234 | 13.0 | 41.0 | 0.00 | 0.00 | 0.00 | 21 | 1011.7 |
| 20260905074038 | 83 | 226 | 18.0 | 41.0 | 0.00 | 0.00 | 0.00 | 21 | 1011.7 |
| 20260905073334 | 83 | 144 | 9.0 | 37.0 | 0.00 | 0.00 | 0.00 | 22 | 1011.5 |
| 20260905072633 | 83 | 224 | 20.0 | 35.0 | 0.00 | 0.00 | 0.00 | 22 | 1010.9 |
| 20260905071932 | 83 | 181 | 6.0 | 38.0 | 0.00 | 0.00 | 0.00 | 22 | 1011.5 |
| 20260905071231 | 83 | 183 | 15.0 | 38.0 | 0.00 | 0.00 | 0.00 | 22 | 1011.3 |
| 20260905070531 | 83 | 213 | 19.0 | 32.0 | 0.00 | 0.00 | 0.00 | 22 | 1011.0 |
| 20260905065829 | 83 | 219 | 18.0 | 36.0 | 0.00 | 0.00 | 0.00 | 22 | 1010.7 |
| 20260905065128 | 83 | 180 | 12.0 | 36.0 | 0.00 | 0.00 | 0.00 | 21 | 1010.7 |
| 20260905064430 | 83 | 221 | 12.0 | 30.0 | 0.00 | 0.00 | 0.00 | 22 | 1010.7 |
| 20260905063726 | 83 | 215 | 17.0 | 32.0 | 0.00 | 0.00 | 0.00 | 21 | 1010.6 |
| 20260905063026 | 83 | 235 | 17.0 | 32.0 | 0.00 | 0.00 | 0.00 | 21 | 1010.4 |
| 20260905062325 | 83 | 235 | 16.0 | 35.0 | 0.00 | 0.00 | 0.00 | 20 | 1010.5 |
| 20260905061623 | 84 | 179 | 11.0 | 35.0 | 0.00 | 0.00 | 0.00 | 20 | 1010.4 |
| 20260905060922 | 84 | 204 | 13.0 | 34.0 | 0.00 | 0.00 | 0.00 | 20 | 1010.6 |
| 20260905060221 | 84 | 204 | 15.0 | 33.0 | 0.00 | 0.00 | 0.00 | 20 | 1010.3 |
| 20260905055521 | 84 | 216 | 21.0 | 39.0 | 0.00 | 0.00 | 0.00 | 21 | 1010.3 |
| 20260905054819 | 84 | 222 | 13.0 | 39.0 | 0.00 | 0.00 | 0.00 | 20 | 1010.4 |
| 20260905054118 | 84 | 228 | 27.0 | 40.0 | 0.00 | 0.00 | 0.00 | 21 | 1009.9 |
| 20260905053417 | 84 | 223 | 19.0 | 46.0 | 0.00 | 0.00 | 0.00 | 22 | 1010.0 |
| 20260905052716 | 84 | 239 | 20.0 | 37.0 | 0.00 | 0.00 | 0.00 | 21 | 1009.6 |
| 20260905052015 | 84 | 193 | 8.0 | 45.0 | 0.00 | 0.00 | 0.00 | 21 | 1010.3 |
| 20260905051314 | 84 | 221 | 26.0 | 45.0 | 0.00 | 0.00 | 0.00 | 23 | 1010.1 |
| 20260905050614 | 84 | 239 | 15.0 | 44.0 | 0.00 | 0.00 | 0.00 | 22 | 1009.6 |
| 20260905045912 | 85 | 220 | 16.0 | 44.0 | 0.00 | 0.00 | 0.00 | 20 | 1009.7 |
| 20260905045211 | 85 | 220 | 17.0 | 36.0 | 0.00 | 0.00 | 0.00 | 21 | 1010.2 |
| 20260905044510 | 84 | 214 | 20.0 | 36.0 | 0.00 | 0.00 | 0.00 | 21 | 1010.1 |
| 20260905043810 | 85 | 229 | 16.0 | 40.0 | 0.00 | 0.00 | 0.00 | 20 | 1010.0 |
| 20260905043108 | 85 | 227 | 13.0 | 40.0 | 0.00 | 0.00 | 0.00 | 20 | 1010.0 |
| 20260905042407 | 85 | 214 | 6.0 | 36.0 | 0.00 | 0.00 | 0.00 | 20 | 1010.2 |
| 20260905041706 | 85 | 216 | 27.0 | 36.0 | 0.00 | 0.00 | 0.00 | 20 | 1009.7 |
| 20260905041005 | 85 | 212 | 12.0 | 33.0 | 0.00 | 0.00 | 0.00 | 19 | 1010.1 |
| 20260905040304 | 85 | 199 | 7.0 | 24.0 | 0.00 | 0.00 | 0.00 | 19 | 1010.0 |
| 20260905035603 | 85 | 220 | 11.0 | 24.0 | 0.00 | 0.00 | 0.00 | 19 | 1009.9 |
| 20260905034902 | 85 | 184 | 9.0 | 24.0 | 0.00 | 0.00 | 0.00 | 19 | 1009.9 |
| 20260905034201 | 85 | 253 | 11.0 | 24.0 | 0.00 | 0.00 | 0.00 | 19 | 1009.8 |
| 20260905033500 | 85 | 215 | 9.0 | 21.0 | 0.00 | 0.00 | 0.00 | 19 | 1009.8 |
| 20260905032758 | 86 | 290 | 10.0 | 28.0 | 0.00 | 0.00 | 0.00 | 19 | 1009.7 |
| 20260905032058 | 86 | 189 | 4.0 | 28.0 | 0.00 | 0.00 | 0.00 | 18 | 1009.7 |
| 20260905031357 | 85 | 273 | 3.0 | 9.0 | 0.00 | 0.00 | 0.00 | 19 | 1009.7 |
| 20260905030655 | 86 | 181 | 4.0 | 11.0 | 0.00 | 0.00 | 0.00 | 19 | 1009.8 |
| 20260905025955 | 86 | 11 | 3.0 | 20.0 | 0.00 | 0.00 | 0.00 | 19 | 1009.7 |
| 20260905025253 | 85 | 221 | 5.0 | 12.0 | 0.00 | 0.00 | 0.00 | 21 | 1008.9 |
| 20260905024552 | 85 | 128 | 6.0 | 10.0 | 0.00 | 0.00 | 0.00 | 20 | 1008.8 |
| 20260905023851 | 85 | 262 | 7.0 | 14.0 | 0.00 | 0.00 | 0.00 | 21 | 1008.6 |
| 20260905023153 | 85 | 245 | 4.0 | 10.0 | 0.00 | 0.00 | 0.00 | 21 | 1009.3 |
| 20260905022449 | 85 | 324 | 2.0 | 8.0 | 0.00 | 0.00 | 0.00 | 21 | 1009.2 |
| 20260905021748 | 86 | 244 | 4.0 | 18.0 | 0.00 | 0.00 | 0.00 | 20 | 1008.9 |
| 20260905015648 | 86 | 176 | 2.0 | 6.0 | 0.00 | 0.00 | 0.00 | 21 | 1008.7 |
| 20260905014944 | 86 | 203 | 1.0 | 9.0 | 0.00 | 0.00 | 0.00 | 21 | 1008.8 |
| 20260905013544 | 88 | 338 | 2.0 | 20.0 | 0.00 | 0.00 | 0.00 | 20 | 1008.4 |
| 20260905012842 | 88 | 74 | 6.0 | 20.0 | 0.00 | 0.00 | 0.00 | 19 | 1008.2 |
| 20260905012141 | 88 | 119 | 2.0 | 16.0 | 0.00 | 0.00 | 0.00 | 19 | 1008.3 |
| 20260905011439 | 88 | 103 | 8.0 | 18.0 | 0.00 | 0.00 | 0.00 | 19 | 1008.3 |
| 20260905010742 | 89 | 129 | 4.0 | 22.0 | 0.00 | 0.00 | 0.00 | 19 | 1008.1 |
| 20260905010038 | 89 | 129 | 12.0 | 22.0 | 0.00 | 0.00 | 0.00 | 19 | 1007.9 |
| 20260905004635 | 89 | 134 | 5.0 | 28.0 | 0.00 | 0.00 | 0.00 | 18 | 1008.4 |
| 20260905003233 | 89 | 125 | 4.0 | 28.0 | 0.00 | 0.00 | 0.00 | 17 | 1008.5 |
| 20260905002534 | 89 | 198 | 7.0 | 23.0 | 0.00 | 0.00 | 0.00 | 19 | 1008.0 |
| 20260905001831 | 89 | 222 | 4.0 | 33.0 | 0.00 | 0.00 | 0.00 | 18 | 1008.5 |
| 20260905001130 | 89 | 242 | 7.0 | 25.0 | 0.00 | 0.00 | 0.00 | 17 | 1008.4 |
| 20260905000432 | 89 | 207 | 9.0 | 24.0 | 0.00 | 0.00 | 0.00 | 17 | 1008.2 |
| 20260904235728 | 89 | 249 | 6.0 | 23.0 | 0.00 | 0.00 | 0.00 | 17 | 1008.2 |
| 20260904235027 | 89 | 312 | 7.0 | 15.0 | 0.00 | 0.00 | 0.00 | 17 | 1008.0 |
| 20260904234326 | 89 | 41 | 8.0 | 24.0 | 0.00 | 0.00 | 0.00 | 16 | 1008.0 |
| 20260904233626 | 89 | 235 | 10.0 | 30.0 | 0.00 | 0.00 | 0.00 | 17 | 1008.1 |
| 20260904232924 | 89 | 243 | 8.0 | 27.0 | 0.00 | 0.00 | 0.00 | 17 | 1008.0 |
| 20260904232223 | 89 | 240 | 5.0 | 26.0 | 0.00 | 0.00 | 0.00 | 17 | 1008.2 |
| 20260904231523 | 89 | 251 | 4.0 | 33.0 | 0.00 | 0.00 | 0.00 | 16 | 1008.4 |
| 20260904230821 | 89 | 82 | 9.0 | 33.0 | 0.00 | 0.00 | 0.00 | 16 | 1008.0 |
| 20260904225420 | 90 | 357 | 7.0 | 20.0 | 0.00 | 0.00 | 0.00 | 15 | 1008.3 |
| 20260904224718 | 90 | 84 | 3.0 | 19.0 | 0.00 | 0.00 | 0.00 | 15 | 1008.4 |
| 20260904224017 | 90 | 180 | 6.0 | 21.0 | 0.00 | 0.00 | 0.00 | 16 | 1008.6 |
| 20260904223316 | 89 | 121 | 7.0 | 26.0 | 0.00 | 0.00 | 0.00 | 15 | 1008.6 |
| 20260904222615 | 89 | 327 | 7.0 | 26.0 | 0.00 | 0.00 | 0.00 | 17 | 1008.5 |
| 20260904221915 | 88 | 119 | 7.0 | 33.0 | 0.00 | 0.00 | 0.00 | 16 | 1009.1 |
| 20260904221213 | 89 | 215 | 12.0 | 40.0 | 0.00 | 0.00 | 0.00 | 16 | 1008.8 |
| 20260904220512 | 89 | 226 | 13.0 | 33.0 | 0.00 | 0.00 | 0.00 | 16 | 1008.9 |
| 20260904215812 | 89 | 128 | 7.0 | 25.0 | 0.00 | 0.00 | 0.00 | 16 | 1008.8 |
| 20260904215111 | 89 | 119 | 12.0 | 25.0 | 0.00 | 0.00 | 0.00 | 16 | 1009.3 |
| 20260904214409 | 88 | 80 | 3.0 | 13.0 | 0.00 | 0.00 | 0.00 | 16 | 1009.5 |
| 20260904213708 | 87 | 178 | 8.0 | 22.0 | 0.00 | 0.00 | 0.00 | 16 | 1009.5 |
| 20260904213007 | 88 | 221 | 6.0 | 33.0 | 0.00 | 0.00 | 0.00 | 16 | 1009.5 |
| 20260904212306 | 87 | 217 | 17.0 | 33.0 | 0.00 | 0.00 | 0.00 | 17 | 1009.4 |
| 20260904211605 | 87 | 201 | 11.0 | 37.0 | 0.00 | 0.00 | 0.00 | 18 | 1009.6 |
| 20260904210904 | 87 | 224 | 23.0 | 37.0 | 0.00 | 0.00 | 0.00 | 17 | 1009.3 |
| 20260904210203 | 86 | 186 | 22.0 | 34.0 | 0.00 | 0.00 | 0.00 | 16 | 1010.2 |
| 20260904205503 | 86 | 216 | 9.0 | 36.0 | 0.00 | 0.00 | 0.00 | 17 | 1009.7 |
| 20260904204100 | 86 | 232 | 13.0 | 30.0 | 0.00 | 0.00 | 0.00 | 16 | 1009.7 |
| 20260904202658 | 86 | 234 | 12.0 | 25.0 | 0.00 | 0.00 | 0.00 | 18 | 1009.6 |
| 20260904201958 | 85 | 242 | 18.0 | 32.0 | 0.00 | 0.00 | 0.00 | 18 | 1009.9 |
| 20260904201257 | 85 | 202 | 19.0 | 32.0 | 0.00 | 0.00 | 0.00 | 18 | 1010.0 |
| 20260904200555 | 86 | 235 | 3.0 | 21.0 | 0.00 | 0.00 | 0.00 | 18 | 1010.2 |